OBJECT D

Satellite information

Favourite Embed

Satellite Type and Status

UNKNOWNIN ORBIT

Key statistics

Satellite OBJECT D at a glance.

Uptime

169

Days in orbit

Revolutions

≈ 15.1

Per day

Orbit

SSO

Sun Synchronous Orbit

Inclination

97.6

Latest

Satellite identification and parameters

Extended collection of information and parameters for OBJECT D.

Object identification

Identified? True

Debris? False

Object name: OBJECT D

International designator: 2025-013D

Object number (NORAD): 62732

Object ID (CCSDS): 62732

Country: PEOPLES REPUBLIC OF CHINA (PRC)

Current information (Y/N): Y

RCS size: MEDIUM

Orbital parameters

Period: 95.497 minutes

Inclination: 97.6251 deg

SMA: 6920.743 km

Apoapsis: 549.838 km

Periapsis: 535.379 km

RAAN: 354.4565 deg

Eccentricy: 0.0010446

Argument of periapsis: 124.1786 deg

Mean anomaly: 236.0433 deg

Mean motion: 15.079039 rev/day

Mean motion (dot): 0.00002522 rev/day2

B* drag term: 0.00016833 1/REarth

Two-line elements (TLE)

Creation date: July 7, 2025, 11:16 p.m.

Reference frame: TEME

Reference center: EARTH

Epoch: July 7, 2025, 9:23 p.m. UTC

TLE line 0: 0 OBJECT D

TLE line 1: 1 62732U 25013D 25188.89157408 .00002522 00000-0 16833-3 0 9992

TLE line 2: 2 62732 97.6251 354.4565 0010446 124.1786 236.0433 15.07903900 25336

Live tracking on map

Real-time ground track for satellite OBJECT D.

In-orbit conjunctions

There are no conjunctions computed for OBJECT D, at the moment. Check back to stay up to date, as we update our databases every day.

Go to all conjunctions

Associated space launch

Carried 5 satellites to sun synchronous orbit: * Yunyao-1 37 to 40 * Jitianxing A-05

OBJECT D was lifted into orbit during the mission ‘Ceres-1 | 5 satellites’, on board a Ceres-1 space rocket.

The launch took place on Jan. 20, 2025, 10:11 a.m. from Launch Area 95A.

For more information about the launch, click the button.

Launch to space Ceres-1 | 5 satellites
Ceres-1 | 5 satellites

Agency: N/A

Status: Launch Successful

Launch date: Jan. 20, 2025, 10:11 a.m. UTC

Rocket: Ceres-1

Launch pad: Launch Area 95A

Location: Jiuquan Satellite Launch Center, People's Republic of China

...

Latest news about this satellite

There are no fresh news available about this satellite. Check back as we update our databases every day.


Newsletter sign-up

Weekly statistics, charts and insights to help you stay on top of the space industry.